Weather reports worldwide

Advertisment
Honolulu HI/Oahu, United States of America (91182): temperature & dewpoint: 27.05.2020 23:00:00 - 02.06.2020 23:00:00 (HST)Honolulu HI/Oahu, United States of America (91182): wind speed & gusts: 27.05.2020 23:00:00 - 02.06.2020 23:00:00 (HST)Honolulu HI/Oahu, United States of America (91182): wind direction: 27.05.2020 23:00:00 - 02.06.2020 23:00:00 (HST)Honolulu HI/Oahu, United States of America (91182): reduced air pressure: 27.05.2020 23:00:00 - 02.06.2020 23:00:00 (HST)Honolulu HI/Oahu, United States of America (91182): visibility: 27.05.2020 23:00:00 - 02.06.2020 23:00:00 (HST)Honolulu HI/Oahu, United States of America (91182): precipitation: 27.05.2020 23:00:00 - 02.06.2020 23:00:00 (HST)
Date & Time tt [°C] td [°C] ff [km/h] ff [kn] fx [km/h] fx [kn] dd ppp [hPa] vv [km] rr [mm]
02.06.2020 23:00:00 25,6 20,0 15 8 - - NE 1017,1 16 -
02.06.2020 22:00:00 25,6 20,6 11 6 - - ENE 1017,2 16 -
02.06.2020 21:00:00 26,1 20,6 15 8 - - ENE 1016,8 16 -
02.06.2020 20:00:00 26,1 20,6 15 8 - - NE 1016,6 16 -
02.06.2020 19:00:00 26,7 20,6 13 7 - - NNE 1016,1 16 0,0
02.06.2020 18:00:00 28,3 20,0 18 10 - - NNE 1015,4 16 -
02.06.2020 17:00:00 30,0 20,0 24 13 - - NNE 1015,0 16 -
02.06.2020 16:00:00 30,0 20,0 15 8 - - NE 1014,9 16 -
02.06.2020 15:00:00 31,1 20,0 24 13 - - NE 1015,4 16 -
02.06.2020 14:00:00 31,1 20,0 22 12 - - NE 1016,0 16 0,0
02.06.2020 13:00:00 30,6 19,4 18 10 - - NE 1016,2 16 -
02.06.2020 12:00:00 30,0 20,0 16 9 - - NNE 1016,7 16 -
02.06.2020 11:00:00 30,0 20,0 18 10 - - ENE 1017,1 16 -
02.06.2020 10:00:00 28,9 19,4 13 7 - - ENE 1017,3 16 -
02.06.2020 09:00:00 28,3 20,0 9 5 - - - 1017,3 16 -
02.06.2020 08:00:00 26,1 20,0 8 4 - - ENE 1016,9 16 0,0
02.06.2020 07:00:00 25,6 20,0 9 5 - - NE 1016,3 16 -
02.06.2020 06:00:00 24,4 20,0 5 3 - - NNE 1015,5 16 -
02.06.2020 05:00:00 23,9 19,4 8 4 - - NE 1015,1 16 -
02.06.2020 04:00:00 24,4 20,0 8 4 - - NNE 1015,2 16 -
02.06.2020 03:00:00 24,4 20,0 8 4 - - NNE 1015,6 16 -
02.06.2020 02:00:00 25,0 20,0 15 8 - - ENE 1015,9 16 -
02.06.2020 01:00:00 25,6 20,0 15 8 - - E 1016,5 16 -
02.06.2020 00:00:00 25,6 20,0 5 3 - - NE 1016,9 16 -
01.06.2020 23:00:00 25,6 20,0 13 7 - - ENE 1017,0 16 -
01.06.2020 22:00:00 26,1 21,1 8 4 - - NE 1016,7 16 0,0
01.06.2020 21:00:00 26,7 19,4 8 4 - - NNE 1016,7 16 -
01.06.2020 20:00:00 26,1 19,4 13 7 - - NNE 1016,0 16 0,0
01.06.2020 19:00:00 27,2 19,4 15 8 - - NNE 1015,7 16 -
01.06.2020 18:00:00 28,3 18,9 18 10 - - NE 1015,2 16 -
01.06.2020 17:00:00 29,4 18,3 21 11 - - NE 1014,8 16 -
01.06.2020 16:00:00 30,0 18,9 22 12 - - N 1015,1 16 -
01.06.2020 15:00:00 30,6 18,3 15 8 - - NE 1015,4 16 -
01.06.2020 14:00:00 30,6 18,3 21 11 - - NE 1015,9 16 0,0
01.06.2020 13:00:00 30,0 18,3 18 10 - - NE 1016,4 16 -
01.06.2020 12:00:00 30,0 18,3 15 8 - - N 1016,9 16 -
01.06.2020 11:00:00 30,0 17,2 21 11 - - ENE 1017,3 16 -
01.06.2020 10:00:00 28,3 17,8 15 8 - - NE 1017,6 16 -
01.06.2020 09:00:00 28,3 18,3 13 7 - - NNE 1017,7 16 -
01.06.2020 08:00:00 26,7 18,9 8 4 - - - 1017,5 16 0,0
01.06.2020 07:00:00 25,6 18,9 8 4 - - NE 1017,2 16 -
01.06.2020 06:00:00 23,9 19,4 5 3 - - NNE 1016,9 16 -
01.06.2020 05:00:00 24,4 18,9 11 6 - - N 1016,7 16 -
01.06.2020 04:00:00 23,9 18,3 8 4 - - N 1016,6 16 -
01.06.2020 03:00:00 24,4 17,8 8 4 - - NNE 1016,8 16 -
01.06.2020 02:00:00 24,4 17,8 5 3 - - NE 1017,1 16 0,0
01.06.2020 01:00:00 25,0 18,3 11 6 - - ENE 1017,8 16 -
01.06.2020 00:00:00 25,6 18,9 11 6 - - ENE 1018,3 16 -
31.05.2020 23:00:00 25,6 18,9 15 8 - - NE 1018,9 16 -
31.05.2020 22:00:00 25,6 19,4 13 7 - - NE 1018,9 16 -
31.05.2020 21:00:00 26,1 18,9 15 8 - - ENE 1018,3 16 -
31.05.2020 20:00:00 26,1 18,9 21 11 - - NE 1018,0 16 0,0
31.05.2020 19:00:00 26,7 18,3 18 10 - - ENE 1017,6 16 -
31.05.2020 18:00:00 27,2 17,8 21 11 - - NE 1016,9 16 -
31.05.2020 17:00:00 28,9 17,8 24 13 - - NE 1016,5 16 -
31.05.2020 16:00:00 29,4 17,8 22 12 - - ENE 1016,4 16 -
31.05.2020 15:00:00 29,4 18,3 18 10 - - NNE 1016,7 16 -
31.05.2020 14:00:00 30,0 18,3 28 15 - - NNE 1017,4 16 0,0
31.05.2020 13:00:00 30,0 17,8 18 10 50 27 NNE 1017,7 16 -
31.05.2020 12:00:00 30,6 16,1 29 16 - - ENE 1018,2 16 -
31.05.2020 11:00:00 29,4 16,7 26 14 - - NNE 1018,7 16 -
31.05.2020 10:00:00 27,8 17,8 21 11 - - ENE 1018,9 16 -
31.05.2020 09:00:00 27,8 17,8 22 12 - - NE 1019,2 16 -
31.05.2020 08:00:00 26,7 17,8 18 10 - - NE 1019,1 16 0,0
31.05.2020 07:00:00 24,4 17,8 5 3 - - - 1019,2 16 -
31.05.2020 06:00:00 23,3 17,2 11 6 - - ENE 1018,7 16 -
31.05.2020 05:00:00 23,9 17,2 11 6 - - ENE 1018,5 16 -
31.05.2020 04:00:00 24,4 17,2 21 11 - - NE 1018,3 16 -
31.05.2020 03:00:00 24,4 17,2 13 7 - - NE 1018,6 16 -
31.05.2020 02:00:00 24,4 17,8 11 6 - - NE 1019,1 16 0,0
31.05.2020 01:00:00 24,4 18,3 13 7 - - ENE 1019,7 16 -
31.05.2020 00:00:00 25,0 18,3 18 10 - - NE 1020,2 16 -
30.05.2020 23:00:00 25,6 18,9 18 10 - - ENE 1020,3 16 -
30.05.2020 22:00:00 25,6 17,8 8 4 - - NNE 1020,3 16 -
30.05.2020 21:00:00 25,0 16,7 9 5 - - ENE 1020,1 16 -
30.05.2020 20:00:00 25,6 16,7 21 11 - - NE 1019,9 16 0,0
30.05.2020 19:00:00 26,1 16,1 13 7 - - NNE 1019,3 16 -
30.05.2020 18:00:00 27,2 16,7 15 8 - - NE 1018,8 16 -
30.05.2020 17:00:00 27,8 17,8 16 9 - - NE 1018,6 16 -
30.05.2020 16:00:00 28,3 18,3 18 10 - - ENE 1018,5 16 -
30.05.2020 15:00:00 29,4 18,3 22 12 - - NNE 1018,5 16 -
30.05.2020 14:00:00 29,4 18,3 29 16 - - NE 1018,8 16 0,0
30.05.2020 13:00:00 30,0 17,8 24 13 - - NE 1019,4 16 -
30.05.2020 12:00:00 30,0 17,8 26 14 - - NNE 1020,0 16 -
30.05.2020 11:00:00 29,4 17,8 24 13 - - NE 1020,3 16 -
30.05.2020 10:00:00 27,8 17,8 21 11 - - NE 1020,5 16 -
30.05.2020 09:00:00 27,8 17,2 15 8 - - NNE 1020,9 16 -
30.05.2020 08:00:00 25,6 18,3 11 6 - - E 1020,5 16 -
30.05.2020 07:00:00 23,3 19,4 8 4 - - NW 1020,2 16 -
30.05.2020 06:00:00 22,8 18,9 5 3 - - NNW 1019,8 16 -
30.05.2020 05:00:00 22,8 18,9 11 6 - - NNW 1019,6 16 -
30.05.2020 04:00:00 22,8 19,4 8 4 - - N 1019,5 16 0,0
30.05.2020 03:00:00 24,4 17,8 0 0 - - N 1019,6 16 -
30.05.2020 02:00:00 24,4 18,9 9 5 - - ENE 1020,1 16 0,0
30.05.2020 01:00:00 24,4 18,3 13 7 - - E 1020,6 16 -
30.05.2020 00:00:00 25,0 18,3 8 4 - - NE 1021,2 16 -
29.05.2020 23:00:00 24,4 17,8 5 3 - - N 1021,5 16 -
29.05.2020 22:00:00 25,0 17,8 16 9 - - NE 1021,3 16 -
29.05.2020 21:00:00 25,6 18,3 15 8 - - NE 1021,0 16 -
29.05.2020 20:00:00 25,6 17,8 16 9 - - ENE 1020,7 16 0,0
29.05.2020 19:00:00 26,7 17,8 15 8 - - ENE 1020,0 16 -
29.05.2020 18:00:00 28,3 16,7 18 10 - - NE 1019,2 16 -
29.05.2020 17:00:00 29,4 16,7 29 16 - - NE 1018,9 16 -
29.05.2020 16:00:00 28,9 17,8 31 17 - - ENE 1018,8 16 -
29.05.2020 15:00:00 30,0 17,8 26 14 - - NE 1018,9 16 -
29.05.2020 14:00:00 30,0 16,7 24 13 - - NE 1019,1 16 0,0
29.05.2020 13:00:00 29,4 16,1 22 12 - - ENE 1019,5 16 -
29.05.2020 12:00:00 30,0 16,1 24 13 - - NE 1020,0 16 -
29.05.2020 11:00:00 29,4 17,2 26 14 - - NE 1020,3 16 -
29.05.2020 10:00:00 28,3 16,7 13 7 - - ENE 1020,9 16 -
29.05.2020 09:00:00 27,8 17,2 21 11 - - ENE 1021,2 16 -
29.05.2020 08:00:00 25,6 18,3 8 4 - - NE 1021,3 16 0,0
29.05.2020 07:00:00 25,0 17,8 13 7 - - ENE 1020,9 16 -
29.05.2020 06:00:00 24,4 17,2 18 10 - - ENE 1020,2 16 -
29.05.2020 05:00:00 23,9 17,8 8 4 - - - 1019,8 16 -
29.05.2020 04:00:00 24,4 17,2 9 5 - - - 1019,6 16 -
29.05.2020 03:00:00 23,9 17,8 8 4 - - ENE 1019,7 16 -
29.05.2020 02:00:00 25,0 17,8 15 8 - - ENE 1020,1 16 0,0
29.05.2020 01:00:00 25,0 17,8 13 7 - - ENE 1020,5 16 -
29.05.2020 00:00:00 25,0 18,3 13 7 - - ENE 1020,7 16 -
28.05.2020 23:00:00 25,0 17,2 16 9 - - NE 1021,1 16 -
28.05.2020 22:00:00 25,0 17,8 13 7 - - NE 1020,9 16 -
28.05.2020 21:00:00 25,0 17,2 15 8 - - NE 1020,4 16 -
28.05.2020 20:00:00 25,6 16,7 21 11 - - NE 1020,1 16 0,0
28.05.2020 19:00:00 26,1 16,7 21 11 - - NE 1019,5 16 -
28.05.2020 18:00:00 27,2 16,7 22 12 - - ENE 1018,8 16 -
28.05.2020 17:00:00 28,9 15,6 24 13 - - ENE 1018,4 16 -
28.05.2020 16:00:00 28,9 15,6 34 18 - - ENE 1018,4 16 -
28.05.2020 15:00:00 29,4 15,6 26 14 - - ENE 1018,4 16 -
28.05.2020 14:00:00 30,0 15,6 34 18 54 29 ENE 1019,0 16 0,0
28.05.2020 13:00:00 29,4 15,6 26 14 48 26 NE 1019,5 16 -
28.05.2020 12:00:00 28,9 16,1 29 16 50 27 ENE 1020,0 16 -
28.05.2020 11:00:00 28,9 16,1 28 15 - - ENE 1020,3 16 -
28.05.2020 10:00:00 27,8 16,1 18 10 - - ENE 1020,5 16 -
28.05.2020 09:00:00 26,7 16,7 26 14 - - NE 1020,8 16 -
28.05.2020 08:00:00 26,7 17,2 26 14 - - ENE 1020,6 16 0,0
28.05.2020 07:00:00 24,4 18,3 8 4 - - E 1020,3 16 -
28.05.2020 06:00:00 23,3 17,2 9 5 - - NE 1020,0 16 -
28.05.2020 05:00:00 23,3 17,8 8 4 - - N 1019,7 16 -
28.05.2020 04:00:00 23,3 17,8 8 4 - - NNE 1019,5 16 -
28.05.2020 03:00:00 23,9 17,8 11 6 - - NE 1019,5 16 -
28.05.2020 02:00:00 23,9 17,8 15 8 - - NE 1019,7 16 0,0
28.05.2020 01:00:00 24,4 17,8 13 7 - - NE 1020,2 16 -
28.05.2020 00:00:00 24,4 17,8 18 10 - - ENE 1020,6 16 -
27.05.2020 23:00:00 25,0 17,8 15 8 - - ENE 1020,8 16 -

tt = temperature
td = dewpoint
ff = wind speed
fx = gusts
dd = wind direction
ppp = reduced air pressure
vv = visibility
rr = precipitation

Next stations